Showing default

XM-5, 37185

Orbit data source: Space-Track

XM-5, 37185 is a payload satellite owned by Sirius XM (US) in GEO that was launched on Thu, 14 Oct 2010 UTC via a PROTON-M/BRIZ-M launch vehicle from the Tyuratam Missile And Space Complex (TTMTR). Payload-class satellites include a variety of spacecraft equipped with specific instruments for various scientific and technological missions. These include communications satellites like Starlink; space stations such as the ISS; scientific satellites like the Hubble; Earth observation satellites from companies like Planet Labs, Umbra, and HawkEye 360; GPS; miniature CubeSats for education and research; and military/defense satellites.

Loading next visibility...
Identifier
37185, 2010-053A
Orbit
GEO
Country
Flag of USUS
Related business
Manufacturer
SS/Loral
Mission
Operational Commercial Communications
Bus & Motor
SSL-1300, R-4D-15-300
Mass
5,984 kg wet, ~3,163 kg dry
Launch date (UTC)
2010-10-14 (15 years ago)
Launch vehicle
PROTON-M/BRIZ-M
Launch site
Tyuratam Missile And Space Complex (TTMTR)
Object type
Payload
Rocket body
Debris
Shape & HBR
Box + 2 Pan, 15.5 m
Radar Cross Section
58.114 m², Large (>1 m²)

Expand to show TLE details & history
Last TLE update: 16 hours ago

TLE from 16 hours ago
0 XM-5
1 37185U 10053A   25354.88513867  .00000000  00000-0  00000+0 0  9997
2 37185   0.0661 270.9496 0002244 238.8649 143.3591  1.00269291 55699
Epoch: 2025-12-20T21:14Z
TLE epoch observation values (Epoch: 2025-12-20T21:14:35.981Z)
Latitude
0.00068°
Longitude
-115.17601°
Altitude
35,794.379 km
Speed
3.074 km/s
True Right ascension
19h 32m 43s
True Declination
0° 00' 02"
Sunlit
Object was in daylight at epoch
Visualization orbit readout
Latitude
Unknown
Longitude
Unknown
Altitude
Unknown
Speed
Unknown
Apparent Right ascension
Unknown
Apparent Declination
Unknown
Sunlit
N/A
Visualization observer readout
Local Sidereal Time
12:17:15
Azimuth
Unknown
Elevation
Unknown
Doppler factor
Unknown
Orbital elements
Apogee altitude
35,797.827 km
Perigee altitude
35,778.902 km
Semi-major axis
42,166.501 km
Eccentricity
0.00022
Inclination
0.0661°
RAAN
270.9496°
Arg. of periapsis
238.8649°
True anomaly
143.37444°
Mean anomaly
143.3591°
Eccentric anomaly
143.36677°
Mean motion
0.25066 °/min
Orbital period
1,436.19 mins
BSTAR
0
Loading maneuver chart data...
Computing Atmospheric mass density...
Loading historical data...
Loading historical data...
Loading historical data...
Loading historical data...
Loading historical data...
Loading historical data...
Loading historical data...
Other satellites on launch #53 in the year 2010 (2010-10-14 UTC)

Documentation

Showing up to 5 results
|